Regional Weather Roundup
Issued by NWS Newport/Morehead, NC

Current Version | Previous Version | Text Only | Print | Product List | Glossary Off
Versions: 1 2 3 4 5 6 7 8 9 10 11 12 13 14 15 16 17 18 19 20 21 22 23 24 25 26 27 28 29 30 31 32 33 34 35 36 37 38 39 40 41 42 43 44 45 46 47 48 49 50
000 ASUS42 KMHX 150910 RWRMHX WEATHER ROUNDUP FOR EASTERN NORTH CAROLINA NATIONAL WEATHER SERVICE NEWPORT/MOREHEAD CITY NC 500 AM EDT MON SEP 15 2014 NOTE: "FAIR" INDICATES FEW OR NO CLOUDS BELOW 12,000 FEET WITH NO SIGNIFICANT WEATHER AND/OR OBSTRUCTIONS TO VISIBILITY NCZ015>017-031-032-045>047-102-103-151000- NORTH COAST CITY SKY/WX TMP DP RH WIND PRES REMARKS EDENTON CLOUDY 62 61 96 N3 30.20S ELIZABETH CITY CLOUDY 65 59 81 N9 30.20R KITTY HAWK CLOUDY 69 58 68 N6 30.18R MANTEO CLOUDY 69 59 69 N8 30.19R $$ NCZ045>047-081-094-103-104-151000- CENTRAL COAST CITY SKY/WX TMP DP RH WIND PRES REMARKS FRISCO CLOUDY 69 59 70 NE9 30.16S SWANQUARTER N/A 66 N/A N/A N3 30.15S $$ NCZ095-097-098-100-101-151000- SOUTHERN COAST CITY SKY/WX TMP DP RH WIND PRES REMARKS BEAUFORT CLOUDY 68 63 84 NE6 30.17S CEDAR ISLAND N/A 72 N/A N/A VRB12 30.21S JACKSONVILLE CLOUDY 68 62 81 N5 30.18R NEWPORT NOT AVBL PINEY ISLAND CLOUDY 72 62 71 N7 30.17S WILMINGTON CLOUDY 70 66 87 NE7 30.17S $$ NCZ011>013-027>030-043-044-078>080-089-090>093-098-151000- COASTAL PLAIN CITY SKY/WX TMP DP RH WIND PRES REMARKS AHOSKIE MOCLDY 61 59 93 CALM 30.21S CLINTON CLOUDY 65 64 95 N3 30.20R ELIZABETHTOWN CLOUDY 67 67 98 CALM 30.18S GOLDSBORO NOT AVBL GREENVILLE CLOUDY 64 63 94 CALM 30.21R HAVELOCK CLOUDY 69 62 78 NE7 30.19R KENANSVILLE CLOUDY 64 63 94 CALM 30.20S KINSTON MOCLDY 65 63 94 CALM 30.21R NEW BERN CLOUDY 68 62 81 N6 30.20R RICHLANDS CLOUDY 66 61 82 N3 30.19R ROANOKE RAPIDS NOT AVBL ROCKY MOUNT CLOUDY 64 59 83 NE3 30.21R WASHINGTON CLOUDY 64 61 90 CALM 30.20R WHITEVILLE CLOUDY 68 65 91 CALM 30.17S $$ AMZ130-135-150-152-154-156-158-170-250-252-270-ANZ085-086-088-633-658-670-151000- MARINE OBSERVATIONS STATION/POSITION TIME TEMP WIND PRES WAVE SWELL AIR SEA DIR/SP/G HT/PER HT/PER (UTC) (F) (DEG/KT/KT) (MB) (FT/S) (FT/S) CHESAPEAKE LIGHT 0800 68 10/ 9/ 11 1022.8 BUOY 44014 0900 71 79 10/ 14/ 17 1021.5 3/ 7 2/ 7 DUCK 0900 70 76 30/ 9/ 12 1021.4 2E DUCK 0900 N/A 3/ 7 OREGON INLET 0900 70 75 10/ 9/ 13 1021.8 BUOY 44095 0900 76 N/A 3/ 7 20E OREGON INLET NOT AVBL HATTERAS CG 0900 72 78 20/ 13/ 16 1021.8 DIAMOND BUOY 0900 72 350/ 16/ 17 1020.8 4/ 8 2/ 8 CAPE LOOKOUT 0800 70 20/ 9/ 10 1021.3 BEAUFORT LAB 0900 69 79 20/ 5/ 7 1021.1 30 SE NEW RIVER 0900 75 82 30/ 14/ 16 1021.3 2/ 8 2/ 8 5 SE WRIGHTSVILL 0800 72 82 50/ 10/ 12 N/A BUOY 41002 0811 78 83 290/ 14/ 16 1020.4 3/ 4 2/ 7 BUOY 41004 0900 80 83 CALM / 2 1020.4 3/ 6 2/ 6 $$

USA.gov is the U.S. government's official web portal to all federal, state and local government web resources and services.